Regional Weather Roundup
Issued by NWS

Home | Current Version | Previous Version | Text Only | Print | Product List | Glossary On
Versions: 1 2 3 4 5 6 7 8 9 10 11 12 13 14 15 16 17 18 19 20 21 22 23 24 25 26 27 28 29 30 31 32 33 34 35 36 37 38 39 40 41 42 43 44 45 46 47 48 49 50
000
ASUS43 KBIS 270202
RWRND

NORTH DAKOTA REGIONAL WEATHER ROUNDUP
NATIONAL WEATHER SERVICE BISMARCK ND
900 PM CDT FRI AUG 26 2016

NOTE: "FAIR" INDICATES FEW OR NO CLOUDS BELOW 12,000 FEET WITH NO
SIGNIFICANT WEATHER AND/OR OBSTRUCTIONS TO VISIBILITY.


NDZ001>003-009>011-017-270300-
NORTHWEST NORTH DAKOTA

CITY           SKY/WX    TMP DP  RH WIND       PRES   REMARKS
WILLISTON      CLOUDY    64  44  48 CALM      29.93R
MINOT          PTCLDY    64  50  60 S12       29.91F
MINOT AFB      PTCLDY    64  50  61 S9        29.90F
$$

NDZ018>021-031>035-040>046-270300-
SOUTHWEST NORTH DAKOTA

CITY           SKY/WX    TMP DP  RH WIND       PRES   REMARKS
BISMARCK       CLOUDY    61  55  81 S15       30.00S
DICKINSON      MOCLDY    60  48  64 S10       29.95F
GARRISON         N/A     60  56  86 S7        29.95F
HETTINGER ARPT PTCLDY    59  50  72 SE8       30.01S
$$

NDZ004>008-012>016-024-026-027-054-270300-
NORTHEAST NORTH DAKOTA

CITY           SKY/WX    TMP DP  RH WIND       PRES   REMARKS
GRAND FORKS    PTCLDY    60  53  77 S6        30.00S
GRND FRKS AFB  CLOUDY    61  53  73 SW7       30.00S
DEVILS LAKE    CLEAR     64  51  62 S15       30.00R
$$

NDZ022-023-025-028>030-036>039-047>053-270300-
SOUTHEAST NORTH DAKOTA

CITY           SKY/WX    TMP DP  RH WIND       PRES   REMARKS
FARGO          CLOUDY    62  54  74 S6        30.04S
JAMESTOWN      CLEAR     56  51  84 S8        30.02S
$$





USA.gov is the U.S. government's official web portal to all federal, state and local government web resources and services.